Home   Weather   Kalamata   Past weeks

Flag for Greece Past Weather in Kalamata, Greece — Yesterday and Last 2 Weeks

Now
68 °F

Sunny.


Feels Like: 68 °F
Forecast: 48 / 72 °F
Wind: No wind

Location: Kalamata Airport

Current Time: Apr 25, 2017 at 12:06:00 pm

Latest Report: Apr 25, 2017 at 11:20 am


Visibility: 10 mi

Pressure: 30.18 "Hg

Humidity: 40%

Dew Point: 43 °F

Location of KalamataLocation

Past Weather in Kalamata — Graph

°F

Kalamata Temperature Yesterday

Maximum temperature yesterday: 70 °F (at 4:20 pm)
Minimum temperature yesterday: 45 °F (at 1:50 am)
Average temperature yesterday: 56 °F

High & Low Weather Summary for the Past Weeks

 TemperatureHumidityPressure
High72 °F (Apr 14, 11:50 am)100% (Apr 15, 3:20 am)30.18 "Hg (Apr 15, 3:20 am)
Low37 °F (Apr 23, 6:20 am)26% (Apr 23, 3:50 pm)29.80 "Hg (Apr 13, 4:50 pm)
Average57 °F69%29.99 "Hg
* Reported Apr 10 9:20 am — Apr 25 9:50 am, Kalamata, Weather by CustomWeather, © 2017

Note: Actual official high and low records may vary slightly from our data, if they occured in-between our weather recording intervals... More about our weather records

Advertising

Kalamata Weather History for the Previous 24 Hours

Scroll right to see more
 ConditionsComfort  
Time TempWeatherWind HumidityBarometerVisibility
9:50 am
Tue, Apr 25
63 °FSunny.No wind56%30.18 "Hg10 mi
9:20 am61 °FSunny.No wind59%30.18 "Hg10 mi
8:50 am55 °FSunny.No wind82%30.18 "Hg10 mi
8:20 am52 °FSunny.No wind88%30.18 "Hg10 mi
7:50 am48 °FSunny.6 mph87%30.15 "Hg10 mi
7:20 am46 °FPassing clouds.7 mph93%30.15 "HgN/A
6:50 am46 °FPassing clouds.6 mph87%30.15 "HgN/A
6:20 am46 °FPassing clouds.6 mph87%30.15 "HgN/A
5:50 am46 °FPassing clouds.5 mph93%30.15 "HgN/A
5:20 am46 °FPassing clouds.5 mph93%30.15 "HgN/A
4:50 am46 °FPassing clouds.6 mph87%30.15 "HgN/A
3:50 am46 °FPassing clouds.5 mph87%30.15 "HgN/A
3:20 am46 °FClear.5 mph87%30.18 "Hg10 mi
2:50 am46 °FClear.5 mph93%30.18 "Hg10 mi
2:20 am46 °FClear.5 mph87%30.18 "Hg10 mi
1:50 am46 °FClear.No wind93%30.18 "Hg10 mi
1:20 am48 °FClear.No wind87%30.18 "Hg10 mi
12:50 am50 °FClear.No wind88%30.18 "Hg10 mi
12:20 am48 °FClear.No wind87%30.18 "Hg10 mi
11:50 pm
Mon, Apr 24
50 °FClear.5 mph88%30.18 "Hg10 mi
11:20 pm50 °FClear.No wind88%30.18 "Hg10 mi
10:50 pm52 °FClear.No wind82%30.18 "Hg10 mi
10:20 pm52 °FClear.No wind82%30.18 "Hg10 mi
9:50 pm52 °FClear.No wind82%30.18 "Hg10 mi
9:20 pm55 °FClear.No wind72%30.18 "Hg10 mi
8:50 pm59 °FClear.5 mph59%30.18 "Hg10 mi
8:20 pm61 °FClear.5 mph59%30.15 "Hg10 mi
7:50 pm61 °FSunny.5 mph59%30.15 "Hg10 mi
7:20 pm64 °FPassing clouds.5 mph52%30.15 "HgN/A
6:50 pm66 °FPassing clouds.6 mph46%30.15 "HgN/A
6:20 pm66 °FPassing clouds.8 mph46%30.15 "HgN/A
5:50 pm68 °FPassing clouds.10 mph40%30.15 "HgN/A
5:20 pm68 °FPassing clouds.8 mph38%30.15 "HgN/A
4:50 pm68 °FPassing clouds.9 mph38%30.15 "HgN/A
4:20 pm70 °FPassing clouds.9 mph35%30.15 "HgN/A
3:50 pm68 °FPassing clouds.9 mph38%30.15 "HgN/A
3:20 pm68 °FPassing clouds.8 mph38%30.15 "HgN/A
2:50 pm68 °FPassing clouds.8 mph40%30.18 "HgN/A
2:20 pm66 °FSunny.9 mph46%30.18 "Hg10 mi
1:50 pm66 °FSunny.9 mph43%30.18 "Hg10 mi
1:20 pm66 °FSunny.8 mph49%30.18 "Hg10 mi
12:50 pm66 °FSunny.8 mph37%30.18 "Hg10 mi
12:20 pm66 °FSunny.7 mph37%30.18 "Hg10 mi
Weather by CustomWeather, © 2017

See weather overviewHow to use our weather pages